Time,TemperatureF,DewpointF,PressureIn,WindDirection,WindDirectionDegrees,WindSpeedMPH,WindSpeedGustMPH,Humidity,HourlyPrecipIn,Conditions,Clouds,dailyrainin,SolarRadiationWatts/m^2,SoftwareType,DateUTC
2013-06-01 00:00:00,76.0,29.0,29.90,ENE,64,5.0,15.0,18,-99.99,,,-99.99,0.000000,,2013-06-01 06:00:00,
2013-06-01 00:52:00,76.0,29.0,29.90,ENE,64,5.0,15.0,18,-99.99,,,-99.99,0.000000,,2013-06-01 06:52:00,
2013-06-01 02:00:00,71.0,30.0,29.93,West,279,5.0,8.0,22,-99.99,,,-99.99,0.000000,,2013-06-01 08:00:00,
2013-06-01 02:52:00,71.0,30.0,29.93,West,279,5.0,8.0,22,-99.99,,,-99.99,0.000000,,2013-06-01 08:52:00,
2013-06-01 03:00:00,63.0,26.0,29.95,ENE,77,3.0,10.0,24,-99.99,,,-99.99,0.010000,,2013-06-01 09:00:00,
2013-06-01 03:53:00,63.0,26.0,29.95,ENE,77,3.0,10.0,24,-99.99,,,-99.99,0.010000,,2013-06-01 09:53:00,
2013-06-01 04:00:00,60.0,24.0,29.96,NNW,348,3.0,8.0,25,-99.99,,,-99.99,0.030000,,2013-06-01 10:00:00,
2013-06-01 04:52:00,60.0,24.0,29.96,NNW,348,3.0,8.0,25,-99.99,,,-99.99,0.030000,,2013-06-01 10:52:00,
2013-06-01 05:00:00,63.0,15.0,29.98,NNW,333,6.0,7.0,15,-99.99,,,-99.99,0.030000,,2013-06-01 11:00:00,
2013-06-01 05:52:00,63.0,15.0,29.98,NNW,333,6.0,7.0,15,-99.99,,,-99.99,0.030000,,2013-06-01 11:52:00,
2013-06-01 06:00:00,59.0,12.0,29.98,NW,326,7.0,9.0,15,-99.99,,,-99.99,0.640000,,2013-06-01 12:00:00,
2013-06-01 06:52:00,59.0,12.0,29.98,NW,326,7.0,9.0,15,-99.99,,,-99.99,0.640000,,2013-06-01 12:52:00,
2013-06-01 07:00:00,62.0,10.0,29.99,NNW,336,7.0,10.0,13,-99.99,,,-99.99,69.250000,,2013-06-01 13:00:00,
2013-06-01 07:52:00,62.0,10.0,29.99,NNW,336,7.0,10.0,13,-99.99,,,-99.99,69.250000,,2013-06-01 13:52:00,
2013-06-01 08:00:00,71.0,11.0,30.00,NW,319,9.0,9.0,10,-99.99,,,-99.99,262.799988,,2013-06-01 14:00:00,
2013-06-01 08:52:00,71.0,11.0,30.00,NW,319,9.0,9.0,10,-99.99,,,-99.99,262.799988,,2013-06-01 14:52:00,
2013-06-01 09:00:00,79.0,10.0,30.01,NW,321,9.0,14.0,7,-99.99,,,-99.99,472.899994,,2013-06-01 15:00:00,
2013-06-01 09:54:00,79.0,10.0,30.01,NW,321,9.0,14.0,7,-99.99,,,-99.99,472.899994,,2013-06-01 15:54:00,
2013-06-01 10:00:00,84.0,10.0,30.01,North,355,12.0,13.0,6,-99.99,,,-99.99,680.900024,,2013-06-01 16:00:00,
2013-06-01 10:52:00,84.0,10.0,30.01,North,355,12.0,13.0,6,-99.99,,,-99.99,680.900024,,2013-06-01 16:52:00,
2013-06-01 11:00:00,87.0,12.0,30.01,North,7,10.0,19.0,6,-99.99,,,-99.99,862.000000,,2013-06-01 17:00:00,
2013-06-01 11:52:00,87.0,12.0,30.01,North,7,10.0,19.0,6,-99.99,,,-99.99,862.000000,,2013-06-01 17:52:00,
2013-06-01 13:00:00,88.0,13.0,29.99,North,6,8.0,15.0,6,-99.99,,,-99.99,994.000000,,2013-06-01 19:00:00,
2013-06-01 13:52:00,88.0,13.0,29.99,North,6,8.0,15.0,6,-99.99,,,-99.99,994.000000,,2013-06-01 19:52:00,
2013-06-01 14:00:00,91.0,15.0,29.98,ENE,78,6.0,16.0,6,-99.99,,,-99.99,1069.000000,,2013-06-01 20:00:00,
2013-06-01 14:52:00,91.0,15.0,29.98,ENE,78,6.0,16.0,6,-99.99,,,-99.99,1069.000000,,2013-06-01 20:52:00,
2013-06-01 15:00:00,93.0,16.0,29.96,NE,39,6.0,15.0,6,-99.99,,,-99.99,1017.000000,,2013-06-01 21:00:00,
2013-06-01 15:53:00,93.0,16.0,29.96,NE,39,6.0,15.0,6,-99.99,,,-99.99,1017.000000,,2013-06-01 21:53:00,
2013-06-01 16:00:00,95.0,18.0,29.95,East,84,7.0,13.0,6,-99.99,,,-99.99,899.000000,,2013-06-01 22:00:00,
2013-06-01 16:53:00,95.0,18.0,29.95,East,84,7.0,13.0,6,-99.99,,,-99.99,899.000000,,2013-06-01 22:53:00,
2013-06-01 17:00:00,94.0,17.0,29.94,South,173,5.0,16.0,6,-99.99,,,-99.99,723.000000,,2013-06-01 23:00:00,
2013-06-01 17:52:00,94.0,17.0,29.94,South,173,5.0,16.0,6,-99.99,,,-99.99,723.000000,,2013-06-01 23:52:00,
2013-06-01 18:00:00,93.0,17.0,29.93,WSW,248,5.0,18.0,6,-99.99,,,-99.99,514.000000,,2013-06-02 00:00:00,
2013-06-01 18:52:00,93.0,17.0,29.93,WSW,248,5.0,18.0,6,-99.99,,,-99.99,514.000000,,2013-06-02 00:52:00,
2013-06-01 19:00:00,92.0,22.0,29.93,SE,131,4.0,12.0,8,-99.99,,,-99.99,295.200012,,2013-06-02 01:00:00,
2013-06-01 19:52:00,92.0,22.0,29.93,SE,131,4.0,12.0,8,-99.99,,,-99.99,295.200012,,2013-06-02 01:52:00,
2013-06-01 20:00:00,88.0,25.0,29.94,South,179,7.0,21.0,10,-99.99,,,-99.99,92.099998,,2013-06-02 02:00:00,
2013-06-01 20:52:00,88.0,25.0,29.94,South,179,7.0,21.0,10,-99.99,,,-99.99,92.099998,,2013-06-02 02:52:00,
2013-06-01 21:00:00,83.0,-99.9,29.96,SSE,168,4.0,15.0,11,-99.99,,,-99.99,1.040000,,2013-06-02 03:00:00,
2013-06-01 21:53:00,83.0,23.0,29.96,SSE,168,4.0,15.0,11,-99.99,,,-99.99,1.040000,,2013-06-02 03:53:00,
2013-06-01 22:00:00,84.0,28.0,29.97,ESE,123,7.0,7.0,13,-99.99,,,-99.99,0.000000,,2013-06-02 04:00:00,
2013-06-01 22:53:00,84.0,28.0,29.97,ESE,123,7.0,7.0,13,-99.99,,,-99.99,0.000000,,2013-06-02 04:53:00,
2013-06-01 23:00:00,83.0,29.0,29.98,ESE,107,15.0,17.0,14,-99.99,,,-99.99,0.000000,,2013-06-02 05:00:00,
2013-06-01 23:52:00,83.0,29.0,29.98,ESE,107,15.0,17.0,14,-99.99,,,-99.99,0.000000,,2013-06-02 05:52:00,